This is the latest recevied weather packets stored in our database for station/object DC0VZ-6. If no packets are shown the sender has not sent any weather packets the latest 10 day(s).
| Time | Temp. | Humidity | Pressure | Rain* | Wind** | Luminosity | Snow |
|---|---|---|---|---|---|---|---|
| 1777904773 | 20° C | 22% | 981.9 hPa | 0 mm | - | - | - |
| 1777904173 | 20.56° C | 22% | 982.1 hPa | 0 mm | - | - | - |
| 1777903573 | 21.67° C | 21% | 982.1 hPa | 0 mm | - | - | - |
| 1777902972 | 21.11° C | 23% | 982.1 hPa | 0 mm | - | - | - |
| 1777902372 | 20° C | 23% | 982.1 hPa | 0 mm | - | - | - |
| 1777901772 | 21.11° C | 23% | 982.3 hPa | 0 mm | - | - | - |
| 1777901172 | 21.11° C | 22% | 982.3 hPa | 0 mm | - | - | - |
| 1777900572 | 21.11° C | 23% | 982.6 hPa | 0 mm | - | - | - |
| 1777899972 | 20.56° C | 23% | 982.6 hPa | 0 mm | - | - | - |
| 1777899372 | 20.56° C | 23% | 982.5 hPa | 0 mm | - | - | - |
| 1777898772 | 21.11° C | 24% | 982.5 hPa | 0 mm | - | - | - |
| 1777898171 | 20.56° C | 24% | 982.6 hPa | 0 mm | - | - | - |
| 1777897572 | 20.56° C | 24% | 982.6 hPa | 0 mm | - | - | - |
| 1777896971 | 20.56° C | 25% | 982.7 hPa | 0 mm | - | - | - |
| 1777896371 | 20.56° C | 26% | 982.7 hPa | 0 mm | - | - | - |
| 1777895771 | 20.56° C | 26% | 982.4 hPa | 0 mm | - | - | - |
| 1777895171 | 20.56° C | 26% | 982.4 hPa | 0 mm | - | - | - |
| 1777894571 | 20° C | 26% | 982.2 hPa | 0 mm | - | - | - |
| 1777893971 | 20.56° C | 25% | 982.2 hPa | 0 mm | - | - | - |
| 1777893371 | 19.44° C | 26% | 982 hPa | 0 mm | - | - | - |
| 1777892771 | 19.44° C | 25% | 982 hPa | 0 mm | - | - | - |
| 1777892171 | 18.33° C | 25% | 981.9 hPa | 0 mm | - | - | - |
| 1777891571 | 18.33° C | 25% | 981.9 hPa | 0 mm | - | - | - |
| 1777890971 | 18.33° C | 24% | 981.9 hPa | 0 mm | - | - | - |
| 1777890370 | 18.33° C | 24% | 981.9 hPa | 0 mm | - | - | - |
* Rain latest hour (hover to see other rain measurements)
** Current wind speed in m/s (hover to see current wind gust speed)